Time,TemperatureF,DewpointF,PressureIn,WindDirection,WindDirectionDegrees,WindSpeedMPH,WindSpeedGustMPH,Humidity,HourlyPrecipIn,Conditions,Clouds,dailyrainin,SoftwareType,DateUTC
2013-01-10 00:00:00,57.5,54.6,30.34,East,85,6.0,11.0,90,0.00,,SKC,0.15,VWS V13.00,2013-01-10 06:00:00,
2013-01-10 00:05:00,57.5,54.3,30.34,ESE,110,7.0,9.0,89,0.00,,SKC,0.00,VWS V13.00,2013-01-10 06:05:00,
2013-01-10 00:10:00,57.6,54.4,30.34,ESE,102,6.0,11.0,89,0.00,,SKC,0.00,VWS V13.00,2013-01-10 06:10:00,
2013-01-10 00:15:00,57.6,54.4,30.34,East,93,7.0,11.0,89,0.00,,SKC,0.00,VWS V13.00,2013-01-10 06:15:00,
2013-01-10 00:20:00,57.7,54.2,30.34,East,90,9.0,11.0,88,0.00,,SKC,0.00,VWS V13.00,2013-01-10 06:20:00,
2013-01-10 00:25:00,57.8,54.3,30.34,East,98,7.0,11.0,88,0.00,,SKC,0.00,VWS V13.00,2013-01-10 06:25:00,
2013-01-10 00:30:00,57.8,54.3,30.34,East,86,7.0,11.0,88,0.00,,SKC,0.00,VWS V13.00,2013-01-10 06:30:00,
2013-01-10 00:35:00,57.8,54.3,30.33,East,94,8.0,10.0,88,0.00,,SKC,0.00,VWS V13.00,2013-01-10 06:35:00,
2013-01-10 00:40:00,57.8,54.3,30.33,ESE,105,8.0,11.0,88,0.00,,SKC,0.00,VWS V13.00,2013-01-10 06:40:00,
2013-01-10 00:45:00,57.8,54.3,30.33,East,98,6.0,12.0,88,0.00,,SKC,0.00,VWS V13.00,2013-01-10 06:45:00,
2013-01-10 00:50:00,57.9,54.4,30.33,East,98,7.0,12.0,88,0.00,,SKC,0.00,VWS V13.00,2013-01-10 06:50:00,
2013-01-10 00:55:00,57.8,54.0,30.33,ESE,103,10.0,12.0,87,0.00,,SKC,0.00,VWS V13.00,2013-01-10 06:55:00,
2013-01-10 01:00:00,57.9,54.1,30.33,East,95,7.0,12.0,87,0.00,,SKC,0.00,VWS V13.00,2013-01-10 07:00:00,
2013-01-10 01:05:00,58.0,53.8,30.33,ESE,103,4.0,9.0,86,0.00,,SKC,0.00,VWS V13.00,2013-01-10 07:05:00,
2013-01-10 01:10:00,58.0,53.8,30.33,ENE,78,5.0,9.0,86,0.00,,SKC,0.00,VWS V13.00,2013-01-10 07:10:00,
2013-01-10 01:15:00,58.0,53.8,30.34,ESE,103,5.0,9.0,86,0.00,,SKC,0.00,VWS V13.00,2013-01-10 07:15:00,
2013-01-10 01:20:00,58.0,53.8,30.34,East,92,2.0,9.0,86,0.00,,SKC,0.00,VWS V13.00,2013-01-10 07:20:00,
2013-01-10 01:25:00,58.0,53.8,30.34,ESE,110,4.0,9.0,86,0.00,,SKC,0.00,VWS V13.00,2013-01-10 07:25:00,
2013-01-10 01:30:00,58.0,53.8,30.34,SE,138,1.0,9.0,86,0.00,,SKC,0.00,VWS V13.00,2013-01-10 07:30:00,
2013-01-10 01:35:00,58.0,53.8,30.34,ESE,115,3.0,6.0,86,0.00,,SKC,0.00,VWS V13.00,2013-01-10 07:35:00,
2013-01-10 01:40:00,58.0,53.8,30.33,ESE,120,6.0,7.0,86,0.00,,SKC,0.00,VWS V13.00,2013-01-10 07:40:00,
2013-01-10 01:45:00,58.0,53.8,30.33,ESE,117,6.0,8.0,86,0.00,,SKC,0.00,VWS V13.00,2013-01-10 07:45:00,
2013-01-10 01:50:00,58.0,53.8,30.34,ESE,105,2.0,8.0,86,0.00,,SKC,0.00,VWS V13.00,2013-01-10 07:50:00,
2013-01-10 01:55:00,58.0,53.8,30.34,East,94,5.0,8.0,86,0.00,,SKC,0.00,VWS V13.00,2013-01-10 07:55:00,
2013-01-10 02:00:00,57.9,53.7,30.33,East,101,7.0,8.0,86,0.00,,SKC,0.00,VWS V13.00,2013-01-10 08:00:00,
2013-01-10 02:05:00,57.8,53.7,30.33,East,96,4.0,7.0,86,0.00,,SKC,0.00,VWS V13.00,2013-01-10 08:05:00,
2013-01-10 02:10:00,57.9,53.7,30.34,SE,130,5.0,9.0,86,0.00,,SKC,0.00,VWS V13.00,2013-01-10 08:10:00,
2013-01-10 02:15:00,57.9,53.7,30.33,ENE,75,4.0,9.0,86,0.00,,SKC,0.00,VWS V13.00,2013-01-10 08:15:00,
2013-01-10 02:20:00,57.9,53.7,30.33,ESE,114,5.0,9.0,86,0.00,,SKC,0.00,VWS V13.00,2013-01-10 08:20:00,
2013-01-10 02:25:00,58.0,53.8,30.33,ESE,106,5.0,9.0,86,0.00,,SKC,0.00,VWS V13.00,2013-01-10 08:25:00,
2013-01-10 02:30:00,58.0,53.8,30.33,ESE,122,4.0,9.0,86,0.00,,SKC,0.00,VWS V13.00,2013-01-10 08:30:00,
2013-01-10 02:35:00,58.0,53.8,30.32,ESE,120,6.0,8.0,86,0.00,,SKC,0.00,VWS V13.00,2013-01-10 08:35:00,
2013-01-10 02:40:00,58.0,53.8,30.32,East,100,6.0,9.0,86,0.00,,SKC,0.00,VWS V13.00,2013-01-10 08:40:00,
2013-01-10 02:45:00,58.1,53.9,30.32,East,101,3.0,10.0,86,0.00,,SKC,0.00,VWS V13.00,2013-01-10 08:45:00,
2013-01-10 02:50:00,58.0,53.8,30.32,East,100,5.0,12.0,86,0.00,,SKC,0.00,VWS V13.00,2013-01-10 08:50:00,
2013-01-10 02:55:00,58.1,53.6,30.32,ESE,115,5.0,12.0,85,0.00,,SKC,0.00,VWS V13.00,2013-01-10 08:55:00,
2013-01-10 03:00:00,58.2,53.7,30.32,ESE,105,4.0,12.0,85,0.00,,SKC,0.00,VWS V13.00,2013-01-10 09:00:00,
2013-01-10 03:05:00,58.2,53.7,30.32,ESE,105,7.0,8.0,85,0.00,,SKC,0.00,VWS V13.00,2013-01-10 09:05:00,
2013-01-10 03:10:00,58.2,53.7,30.32,ESE,123,5.0,10.0,85,0.00,,SKC,0.00,VWS V13.00,2013-01-10 09:10:00,
2013-01-10 03:15:00,58.2,53.7,30.32,SSE,153,7.0,10.0,85,0.00,,SKC,0.00,VWS V13.00,2013-01-10 09:15:00,
2013-01-10 03:20:00,58.3,53.8,30.32,SE,128,7.0,10.0,85,0.00,,SKC,0.00,VWS V13.00,2013-01-10 09:20:00,
2013-01-10 03:25:00,58.3,53.8,30.32,East,101,7.0,10.0,85,0.00,,SKC,0.00,VWS V13.00,2013-01-10 09:25:00,
2013-01-10 03:30:00,58.3,53.8,30.31,ESE,105,7.0,10.0,85,0.00,,SKC,0.00,VWS V13.00,2013-01-10 09:30:00,
2013-01-10 03:35:00,58.3,53.8,30.31,East,93,10.0,10.0,85,0.00,,SKC,0.00,VWS V13.00,2013-01-10 09:35:00,
2013-01-10 03:40:00,58.4,53.9,30.31,ESE,116,7.0,12.0,85,0.00,,SKC,0.00,VWS V13.00,2013-01-10 09:40:00,
2013-01-10 03:45:00,58.3,54.1,30.31,East,101,6.0,12.0,86,0.00,,SKC,0.00,VWS V13.00,2013-01-10 09:45:00,
2013-01-10 03:50:00,58.3,54.1,30.30,East,96,7.0,12.0,86,0.00,,SKC,0.00,VWS V13.00,2013-01-10 09:50:00,
2013-01-10 03:55:00,58.2,54.0,30.30,East,93,6.0,12.0,86,0.00,,SKC,0.00,VWS V13.00,2013-01-10 09:55:00,
2013-01-10 04:00:00,58.2,54.4,30.30,SE,125,7.0,12.0,87,0.00,,SKC,0.00,VWS V13.00,2013-01-10 10:00:00,
2013-01-10 04:05:00,58.1,54.3,30.29,ESE,116,5.0,11.0,87,0.00,,SKC,0.00,VWS V13.00,2013-01-10 10:05:00,
2013-01-10 04:10:00,58.1,54.3,30.30,East,101,5.0,12.0,87,0.00,,SKC,0.00,VWS V13.00,2013-01-10 10:10:00,
2013-01-10 04:15:00,58.1,54.3,30.29,ESE,114,6.0,12.0,87,0.00,,SKC,0.00,VWS V13.00,2013-01-10 10:15:00,
2013-01-10 04:20:00,58.1,54.6,30.29,ESE,105,7.0,12.0,88,0.00,,SKC,0.00,VWS V13.00,2013-01-10 10:20:00,
2013-01-10 04:25:00,58.1,54.6,30.29,ESE,104,6.0,12.0,88,0.00,,SKC,0.00,VWS V13.00,2013-01-10 10:25:00,
2013-01-10 04:30:00,58.1,54.6,30.29,ESE,113,5.0,12.0,88,0.00,,SKC,0.00,VWS V13.00,2013-01-10 10:30:00,
2013-01-10 04:35:00,58.1,54.6,30.29,ESE,102,7.0,10.0,88,0.00,,SKC,0.00,VWS V13.00,2013-01-10 10:35:00,
2013-01-10 04:40:00,58.1,54.9,30.29,East,100,5.0,10.0,89,0.00,,SKC,0.00,VWS V13.00,2013-01-10 10:40:00,
2013-01-10 04:45:00,58.2,55.0,30.29,East,91,4.0,10.0,89,0.00,,SKC,0.00,VWS V13.00,2013-01-10 10:45:00,
2013-01-10 04:50:00,58.2,55.0,30.29,ESE,108,10.0,12.0,89,0.00,,SKC,0.00,VWS V13.00,2013-01-10 10:50:00,
2013-01-10 04:55:00,58.2,55.0,30.29,East,88,9.0,12.0,89,0.00,,SKC,0.00,VWS V13.00,2013-01-10 10:55:00,
2013-01-10 05:00:00,58.2,55.0,30.29,South,171,4.0,12.0,89,0.00,,SKC,0.00,VWS V13.00,2013-01-10 11:00:00,
2013-01-10 05:05:00,58.2,55.0,30.30,SSE,150,9.0,9.0,89,0.00,,SKC,0.00,VWS V13.00,2013-01-10 11:05:00,
2013-01-10 05:10:00,58.2,55.0,30.29,East,96,5.0,12.0,89,0.00,,SKC,0.00,VWS V13.00,2013-01-10 11:10:00,
2013-01-10 05:15:00,58.2,55.0,30.29,East,98,6.0,12.0,89,0.00,,SKC,0.00,VWS V13.00,2013-01-10 11:15:00,
2013-01-10 05:20:00,58.2,55.3,30.29,ESE,111,6.0,12.0,90,0.00,,SKC,0.00,VWS V13.00,2013-01-10 11:20:00,
2013-01-10 05:25:00,58.2,55.3,30.29,East,95,8.0,12.0,90,0.00,,SKC,0.00,VWS V13.00,2013-01-10 11:25:00,
2013-01-10 05:30:00,58.1,55.2,30.29,East,92,7.0,12.0,90,0.00,,SKC,0.00,VWS V13.00,2013-01-10 11:30:00,
2013-01-10 05:35:00,58.0,55.1,30.29,East,97,6.0,13.0,90,0.00,,SKC,0.00,VWS V13.00,2013-01-10 11:35:00,
2013-01-10 05:40:00,58.0,55.1,30.29,NE,52,11.0,15.0,90,0.00,,SKC,0.00,VWS V13.00,2013-01-10 11:40:00,
2013-01-10 05:45:00,57.9,55.3,30.29,East,85,5.0,15.0,91,0.00,,SKC,0.00,VWS V13.00,2013-01-10 11:45:00,
2013-01-10 05:50:00,57.9,55.3,30.29,ESE,102,7.0,15.0,91,0.00,,SKC,0.00,VWS V13.00,2013-01-10 11:50:00,
2013-01-10 05:55:00,57.8,55.2,30.29,East,84,4.0,15.0,91,0.00,,SKC,0.00,VWS V13.00,2013-01-10 11:55:00,
2013-01-10 06:00:00,57.7,55.4,30.29,ESE,110,10.0,15.0,92,0.00,,SKC,0.00,VWS V13.00,2013-01-10 12:00:00,
2013-01-10 06:05:00,57.6,55.3,30.29,ENE,68,8.0,10.0,92,0.00,,SKC,0.00,VWS V13.00,2013-01-10 12:05:00,
2013-01-10 06:10:00,57.5,55.5,30.29,ESE,114,9.0,13.0,93,0.00,,SKC,0.00,VWS V13.00,2013-01-10 12:10:00,
2013-01-10 06:15:00,57.5,55.5,30.29,ESE,103,4.0,13.0,93,0.00,,SKC,0.00,VWS V13.00,2013-01-10 12:15:00,
2013-01-10 06:20:00,57.4,55.4,30.29,SE,126,11.0,13.0,93,0.00,,SKC,0.00,VWS V13.00,2013-01-10 12:20:00,
2013-01-10 06:25:00,57.3,55.3,30.29,East,92,6.0,13.0,93,0.00,,SKC,0.00,VWS V13.00,2013-01-10 12:25:00,
2013-01-10 06:30:00,57.3,55.6,30.29,East,82,6.0,13.0,94,0.00,,SKC,0.00,VWS V13.00,2013-01-10 12:30:00,
2013-01-10 06:35:00,57.2,55.5,30.29,East,101,9.0,10.0,94,0.00,,SKC,0.00,VWS V13.00,2013-01-10 12:35:00,
2013-01-10 06:40:00,57.2,55.5,30.29,ESE,105,6.0,12.0,94,0.00,,SKC,0.00,VWS V13.00,2013-01-10 12:40:00,
2013-01-10 06:45:00,57.2,55.5,30.29,East,84,8.0,12.0,94,0.00,,SKC,0.00,VWS V13.00,2013-01-10 12:45:00,
2013-01-10 06:50:00,57.2,55.5,30.29,East,94,8.0,12.0,94,0.00,,SKC,0.00,VWS V13.00,2013-01-10 12:50:00,
2013-01-10 06:55:00,57.3,55.6,30.29,ESE,108,7.0,13.0,94,0.00,,SKC,0.00,VWS V13.00,2013-01-10 12:55:00,
2013-01-10 07:00:00,57.3,55.6,30.29,ESE,115,11.0,14.0,94,0.00,,SKC,0.00,VWS V13.00,2013-01-10 13:00:00,
2013-01-10 07:05:00,57.3,55.6,30.29,East,101,9.0,10.0,94,0.00,,SKC,0.00,VWS V13.00,2013-01-10 13:05:00,
2013-01-10 07:10:00,57.3,55.6,30.29,ESE,115,6.0,12.0,94,0.00,,SKC,0.00,VWS V13.00,2013-01-10 13:10:00,
2013-01-10 07:15:00,57.2,55.5,30.29,SSE,151,9.0,12.0,94,0.00,,SKC,0.00,VWS V13.00,2013-01-10 13:15:00,
2013-01-10 07:20:00,57.3,55.6,30.29,East,99,4.0,14.0,94,0.00,,SKC,0.00,VWS V13.00,2013-01-10 13:20:00,
2013-01-10 07:25:00,57.3,55.6,30.30,East,80,5.0,14.0,94,0.00,,SKC,0.00,VWS V13.00,2013-01-10 13:25:00,
2013-01-10 07:29:00,57.3,55.6,30.30,ESE,111,5.0,14.0,94,0.00,,SKC,0.00,VWS V13.00,2013-01-10 13:29:00,
2013-01-10 07:34:00,57.3,55.9,30.30,ESE,105,5.0,9.0,95,0.00,,SKC,0.00,VWS V13.00,2013-01-10 13:34:00,
2013-01-10 07:39:00,57.2,55.8,30.31,East,86,5.0,10.0,95,0.00,,SKC,0.00,VWS V13.00,2013-01-10 13:39:00,
2013-01-10 07:44:00,57.2,55.8,30.30,East,88,8.0,10.0,95,0.00,,SKC,0.00,VWS V13.00,2013-01-10 13:44:00,
2013-01-10 07:49:00,57.1,56.0,30.30,East,94,5.0,14.0,96,0.00,,SKC,0.00,VWS V13.00,2013-01-10 13:49:00,
2013-01-10 07:54:00,57.1,56.0,30.30,ESE,103,4.0,14.0,96,0.00,,SKC,0.00,VWS V13.00,2013-01-10 13:54:00,
2013-01-10 07:59:00,57.1,56.0,30.30,SE,136,5.0,14.0,96,0.00,,SKC,0.00,VWS V13.00,2013-01-10 13:59:00,
2013-01-10 08:04:00,57.1,56.0,30.31,SE,136,4.0,6.0,96,0.00,,SKC,0.00,VWS V13.00,2013-01-10 14:04:00,
2013-01-10 08:09:00,57.1,56.0,30.31,East,86,4.0,9.0,96,0.00,,SKC,0.00,VWS V13.00,2013-01-10 14:09:00,
2013-01-10 08:14:00,57.2,56.1,30.31,ESE,107,6.0,10.0,96,0.00,,SKC,0.00,VWS V13.00,2013-01-10 14:14:00,
2013-01-10 08:19:00,57.2,56.1,30.31,SSE,161,4.0,10.0,96,0.00,,SKC,0.00,VWS V13.00,2013-01-10 14:19:00,
2013-01-10 08:24:00,57.3,56.2,30.31,SE,139,2.0,10.0,96,0.00,,SKC,0.00,VWS V13.00,2013-01-10 14:24:00,
2013-01-10 08:29:00,57.4,56.3,30.32,East,96,7.0,13.0,96,0.00,,SKC,0.00,VWS V13.00,2013-01-10 14:29:00,
2013-01-10 08:34:00,57.5,56.7,30.31,SE,134,6.0,9.0,97,0.00,,SKC,0.00,VWS V13.00,2013-01-10 14:34:00,
2013-01-10 08:39:00,57.6,56.5,30.31,ESE,115,8.0,13.0,96,0.00,,SKC,0.00,VWS V13.00,2013-01-10 14:39:00,
2013-01-10 08:44:00,57.7,56.6,30.31,East,101,6.0,13.0,96,0.00,,SKC,0.00,VWS V13.00,2013-01-10 14:44:00,
2013-01-10 08:49:00,57.8,56.7,30.32,ESE,123,6.0,13.0,96,0.00,,SKC,0.00,VWS V13.00,2013-01-10 14:49:00,
2013-01-10 08:54:00,57.9,56.8,30.32,SE,126,8.0,13.0,96,0.00,,SKC,0.00,VWS V13.00,2013-01-10 14:54:00,
2013-01-10 08:59:00,58.0,56.9,30.33,SE,129,4.0,13.0,96,0.00,,SKC,0.00,VWS V13.00,2013-01-10 14:59:00,
2013-01-10 09:04:00,58.0,56.9,30.32,SE,144,8.0,12.0,96,0.00,,SKC,0.00,VWS V13.00,2013-01-10 15:04:00,
2013-01-10 09:09:00,58.0,56.9,30.32,ESE,107,10.0,12.0,96,0.00,,SKC,0.00,VWS V13.00,2013-01-10 15:09:00,
2013-01-10 09:14:00,58.0,56.9,30.32,ESE,121,5.0,12.0,96,0.00,,SKC,0.00,VWS V13.00,2013-01-10 15:14:00,
2013-01-10 09:19:00,58.0,56.9,30.32,SE,124,5.0,12.0,96,0.00,,SKC,0.00,VWS V13.00,2013-01-10 15:19:00,
2013-01-10 09:24:00,58.0,56.9,30.31,SE,126,6.0,12.0,96,0.00,,SKC,0.00,VWS V13.00,2013-01-10 15:24:00,
2013-01-10 09:29:00,58.1,57.0,30.31,East,97,5.0,12.0,96,0.00,,SKC,0.00,VWS V13.00,2013-01-10 15:29:00,
2013-01-10 09:34:00,58.2,57.1,30.31,ESE,122,7.0,10.0,96,0.00,,SKC,0.00,VWS V13.00,2013-01-10 15:34:00,
2013-01-10 09:39:00,58.3,57.2,30.31,SE,131,6.0,11.0,96,0.00,,SKC,0.00,VWS V13.00,2013-01-10 15:39:00,
2013-01-10 09:44:00,58.4,57.3,30.31,SE,130,8.0,11.0,96,0.00,,SKC,0.00,VWS V13.00,2013-01-10 15:44:00,
2013-01-10 09:49:00,58.4,57.3,30.32,ESE,106,6.0,11.0,96,0.00,,SKC,0.00,VWS V13.00,2013-01-10 15:49:00,
2013-01-10 09:54:00,58.5,57.4,30.31,East,95,4.0,11.0,96,0.00,,SKC,0.00,VWS V13.00,2013-01-10 15:54:00,
2013-01-10 09:59:00,58.6,57.5,30.31,ESE,105,4.0,11.0,96,0.00,,SKC,0.00,VWS V13.00,2013-01-10 15:59:00,
2013-01-10 10:04:00,58.7,57.6,30.31,ESE,102,8.0,11.0,96,0.00,,SKC,0.00,VWS V13.00,2013-01-10 16:04:00,
2013-01-10 10:09:00,58.7,57.6,30.30,SE,126,6.0,14.0,96,0.00,,SKC,0.00,VWS V13.00,2013-01-10 16:09:00,
2013-01-10 10:14:00,58.9,57.8,30.30,ESE,123,12.0,14.0,96,0.00,,SKC,0.00,VWS V13.00,2013-01-10 16:14:00,
2013-01-10 10:19:00,59.0,57.9,30.30,ESE,108,4.0,14.0,96,0.00,,SKC,0.00,VWS V13.00,2013-01-10 16:19:00,
2013-01-10 10:24:00,59.0,57.6,30.30,ESE,116,7.0,16.0,95,0.00,,SKC,0.00,VWS V13.00,2013-01-10 16:24:00,
2013-01-10 10:29:00,59.0,57.9,30.30,SE,126,8.0,16.0,96,0.00,,SKC,0.00,VWS V13.00,2013-01-10 16:29:00,
2013-01-10 10:34:00,59.0,57.9,30.29,East,98,5.0,9.0,96,0.00,,SKC,0.00,VWS V13.00,2013-01-10 16:34:00,
2013-01-10 10:39:00,59.0,57.9,30.29,ESE,112,5.0,12.0,96,0.00,,SKC,0.00,VWS V13.00,2013-01-10 16:39:00,
2013-01-10 10:44:00,59.0,57.9,30.28,ESE,107,7.0,12.0,96,0.00,,SKC,0.00,VWS V13.00,2013-01-10 16:44:00,
2013-01-10 10:49:00,59.0,57.9,30.28,ESE,116,11.0,19.0,96,0.00,,SKC,0.00,VWS V13.00,2013-01-10 16:49:00,
2013-01-10 10:54:00,58.9,57.8,30.28,East,92,10.0,19.0,96,0.00,,SKC,0.00,VWS V13.00,2013-01-10 16:54:00,
2013-01-10 10:59:00,59.0,58.2,30.28,SE,130,10.0,19.0,97,0.00,,SKC,0.00,VWS V13.00,2013-01-10 16:59:00,
2013-01-10 11:04:00,59.2,58.3,30.28,East,92,8.0,12.0,97,0.00,,SKC,0.00,VWS V13.00,2013-01-10 17:04:00,
2013-01-10 11:09:00,59.4,58.3,30.27,East,90,10.0,16.0,96,0.00,,SKC,0.00,VWS V13.00,2013-01-10 17:09:00,
2013-01-10 11:14:00,59.6,58.5,30.27,East,98,14.0,16.0,96,0.00,,SKC,0.00,VWS V13.00,2013-01-10 17:14:00,
2013-01-10 11:19:00,59.6,58.5,30.27,East,92,9.0,20.0,96,0.00,,SKC,0.00,VWS V13.00,2013-01-10 17:19:00,
2013-01-10 11:24:00,59.7,58.6,30.27,ESE,109,9.0,20.0,96,0.00,,SKC,0.00,VWS V13.00,2013-01-10 17:24:00,
2013-01-10 11:29:00,59.7,58.6,30.26,ESE,118,6.0,20.0,96,0.00,,SKC,0.00,VWS V13.00,2013-01-10 17:29:00,
2013-01-10 11:34:00,59.6,58.5,30.26,SE,140,4.0,13.0,96,0.01,,SKC,0.02,VWS V13.00,2013-01-10 17:34:00,
2013-01-10 11:39:00,59.6,58.5,30.26,ESE,115,6.0,14.0,96,0.02,,SKC,0.02,VWS V13.00,2013-01-10 17:39:00,
2013-01-10 11:44:00,59.7,58.8,30.26,ESE,105,7.0,14.0,97,0.02,,SKC,0.02,VWS V13.00,2013-01-10 17:44:00,
2013-01-10 11:49:00,59.8,59.0,30.26,ESE,107,7.0,14.0,97,0.02,,SKC,0.02,VWS V13.00,2013-01-10 17:49:00,
2013-01-10 11:54:00,59.9,59.0,30.25,SE,131,10.0,14.0,97,0.02,,SKC,0.02,VWS V13.00,2013-01-10 17:54:00,
2013-01-10 11:59:00,60.0,59.2,30.25,SSE,157,8.0,14.0,97,0.02,,SKC,0.02,VWS V13.00,2013-01-10 17:59:00,
2013-01-10 12:04:00,60.2,59.3,30.25,ESE,111,5.0,10.0,97,0.02,,SKC,0.02,VWS V13.00,2013-01-10 18:04:00,
2013-01-10 12:09:00,60.3,59.2,30.25,SE,126,5.0,11.0,96,0.02,,SKC,0.02,VWS V13.00,2013-01-10 18:09:00,
2013-01-10 12:14:00,60.3,59.2,30.25,ESE,107,7.0,11.0,96,0.02,,SKC,0.02,VWS V13.00,2013-01-10 18:14:00,
2013-01-10 12:19:00,60.3,59.2,30.25,ESE,119,5.0,11.0,96,0.02,,SKC,0.02,VWS V13.00,2013-01-10 18:19:00,
2013-01-10 12:24:00,60.2,59.1,30.25,ESE,109,6.0,12.0,96,0.02,,SKC,0.02,VWS V13.00,2013-01-10 18:24:00,
2013-01-10 12:29:00,60.2,59.1,30.25,ESE,119,1.0,15.0,96,0.02,,SKC,0.02,VWS V13.00,2013-01-10 18:29:00,
2013-01-10 12:34:00,60.3,59.2,30.25,SSE,161,2.0,8.0,96,0.01,,SKC,0.02,VWS V13.00,2013-01-10 18:34:00,
2013-01-10 12:39:00,60.3,59.2,30.24,SE,139,9.0,12.0,96,0.01,,SKC,0.02,VWS V13.00,2013-01-10 18:39:00,
2013-01-10 12:44:00,60.4,59.3,30.24,SE,132,10.0,15.0,96,0.01,,SKC,0.02,VWS V13.00,2013-01-10 18:44:00,
2013-01-10 12:49:00,60.5,59.4,30.24,ESE,113,7.0,15.0,96,0.01,,SKC,0.02,VWS V13.00,2013-01-10 18:49:00,
2013-01-10 12:54:00,60.5,59.4,30.24,ESE,111,7.0,15.0,96,0.01,,SKC,0.02,VWS V13.00,2013-01-10 18:54:00,
2013-01-10 12:59:00,60.5,59.4,30.23,SE,126,9.0,15.0,96,0.01,,SKC,0.02,VWS V13.00,2013-01-10 18:59:00,
2013-01-10 13:04:00,60.5,59.4,30.23,SSE,157,8.0,11.0,96,0.00,,SKC,0.02,VWS V13.00,2013-01-10 19:04:00,
2013-01-10 13:09:00,60.6,59.5,30.22,East,85,9.0,15.0,96,0.00,,SKC,0.02,VWS V13.00,2013-01-10 19:09:00,
2013-01-10 13:14:00,60.6,59.5,30.22,SE,141,6.0,15.0,96,0.00,,SKC,0.02,VWS V13.00,2013-01-10 19:14:00,
2013-01-10 13:19:00,60.6,59.5,30.22,SSE,153,12.0,15.0,96,0.00,,SKC,0.02,VWS V13.00,2013-01-10 19:19:00,
2013-01-10 13:24:00,60.7,59.6,30.22,SE,141,5.0,15.0,96,0.00,,SKC,0.02,VWS V13.00,2013-01-10 19:24:00,
2013-01-10 13:29:00,60.8,59.7,30.23,SSE,157,4.0,15.0,96,0.00,,SKC,0.02,VWS V13.00,2013-01-10 19:29:00,
2013-01-10 13:34:00,60.8,59.7,30.23,SE,137,5.0,9.0,96,0.00,,SKC,0.02,VWS V13.00,2013-01-10 19:34:00,
2013-01-10 13:39:00,60.9,59.8,30.23,SE,146,5.0,10.0,96,0.00,,SKC,0.02,VWS V13.00,2013-01-10 19:39:00,
2013-01-10 13:44:00,60.9,59.8,30.23,SE,127,7.0,12.0,96,0.00,,SKC,0.02,VWS V13.00,2013-01-10 19:44:00,
2013-01-10 13:49:00,61.1,60.0,30.23,SSE,152,5.0,12.0,96,0.00,,SKC,0.02,VWS V13.00,2013-01-10 19:49:00,
2013-01-10 13:54:00,61.2,59.8,30.23,ENE,78,6.0,12.0,95,0.00,,SKC,0.02,VWS V13.00,2013-01-10 19:54:00,
2013-01-10 13:59:00,61.2,59.8,30.23,SE,145,8.0,12.0,95,0.00,,SKC,0.02,VWS V13.00,2013-01-10 19:59:00,
2013-01-10 14:04:00,61.2,60.0,30.23,SE,144,11.0,11.0,96,0.00,,SKC,0.02,VWS V13.00,2013-01-10 20:04:00,
2013-01-10 14:30:00,61.2,60.0,30.22,ESE,112,5.0,13.0,96,0.00,,SKC,0.02,VWS V13.00,2013-01-10 20:30:00,
2013-01-10 14:40:00,61.2,60.0,30.22,ESE,112,5.0,13.0,96,0.00,,SKC,0.02,VWS V13.00,2013-01-10 20:40:00,
2013-01-10 14:45:00,61.4,60.2,30.21,East,83,4.0,10.0,96,0.00,,SKC,0.02,VWS V13.00,2013-01-10 20:45:00,
2013-01-10 14:50:00,61.4,60.2,30.21,SE,139,5.0,10.0,96,0.00,,SKC,0.02,VWS V13.00,2013-01-10 20:50:00,
2013-01-10 14:55:00,61.5,60.3,30.21,SE,144,4.0,10.0,96,0.00,,SKC,0.02,VWS V13.00,2013-01-10 20:55:00,
2013-01-10 15:00:00,61.5,60.3,30.21,SE,146,4.0,10.0,96,0.00,,SKC,0.02,VWS V13.00,2013-01-10 21:00:00,
2013-01-10 15:05:00,61.6,60.5,30.20,ESE,106,2.0,8.0,96,0.00,,SKC,0.02,VWS V13.00,2013-01-10 21:05:00,
2013-01-10 15:10:00,61.7,60.5,30.20,East,80,5.0,11.0,96,0.00,,SKC,0.02,VWS V13.00,2013-01-10 21:10:00,
2013-01-10 15:15:00,61.9,60.5,30.20,SE,145,9.0,11.0,95,0.00,,SKC,0.02,VWS V13.00,2013-01-10 21:15:00,
2013-01-10 15:20:00,62.0,60.6,30.20,ESE,115,8.0,12.0,95,0.00,,SKC,0.02,VWS V13.00,2013-01-10 21:20:00,
2013-01-10 15:25:00,62.1,60.7,30.20,SSE,160,6.0,12.0,95,0.00,,SKC,0.02,VWS V13.00,2013-01-10 21:25:00,
2013-01-10 15:30:00,62.1,60.7,30.21,ENE,77,2.0,12.0,95,0.00,,SKC,0.02,VWS V13.00,2013-01-10 21:30:00,
2013-01-10 15:35:00,62.2,60.8,30.21,SE,128,4.0,12.0,95,0.00,,SKC,0.02,VWS V13.00,2013-01-10 21:35:00,
2013-01-10 15:40:00,62.2,60.5,30.21,ESE,107,6.0,12.0,94,0.00,,SKC,0.02,VWS V13.00,2013-01-10 21:40:00,
2013-01-10 15:45:00,62.3,60.6,30.21,SE,145,7.0,12.0,94,0.00,,SKC,0.02,VWS V13.00,2013-01-10 21:45:00,
2013-01-10 15:50:00,62.3,60.6,30.21,SSE,151,8.0,12.0,94,0.00,,SKC,0.02,VWS V13.00,2013-01-10 21:50:00,
2013-01-10 15:55:00,62.3,60.6,30.21,South,180,4.0,13.0,94,0.00,,SKC,0.02,VWS V13.00,2013-01-10 21:55:00,
2013-01-10 16:00:00,62.2,60.5,30.21,SSE,152,5.0,13.0,94,0.00,,SKC,0.02,VWS V13.00,2013-01-10 22:00:00,
2013-01-10 16:05:00,62.2,60.5,30.21,East,88,4.0,10.0,94,0.00,,SKC,0.02,VWS V13.00,2013-01-10 22:05:00,
2013-01-10 16:10:00,62.2,60.5,30.21,SE,137,6.0,10.0,94,0.00,,SKC,0.02,VWS V13.00,2013-01-10 22:10:00,
2013-01-10 16:15:00,62.2,60.5,30.21,SE,128,4.0,10.0,94,0.00,,SKC,0.02,VWS V13.00,2013-01-10 22:15:00,
2013-01-10 16:20:00,62.1,60.4,30.21,East,101,5.0,10.0,94,0.00,,SKC,0.02,VWS V13.00,2013-01-10 22:20:00,
2013-01-10 16:25:00,62.1,60.4,30.21,South,175,8.0,11.0,94,0.00,,SKC,0.02,VWS V13.00,2013-01-10 22:25:00,
2013-01-10 16:30:00,62.0,60.3,30.21,SSE,166,5.0,11.0,94,0.00,,SKC,0.02,VWS V13.00,2013-01-10 22:30:00,
2013-01-10 16:35:00,62.0,60.6,30.20,SSE,164,6.0,9.0,95,0.01,,SKC,0.03,VWS V13.00,2013-01-10 22:35:00,
2013-01-10 16:40:00,61.8,60.4,30.21,SSE,152,6.0,12.0,95,0.01,,SKC,0.03,VWS V13.00,2013-01-10 22:40:00,
2013-01-10 16:45:00,61.7,60.3,30.20,ESE,111,8.0,12.0,95,0.01,,SKC,0.03,VWS V13.00,2013-01-10 22:45:00,
2013-01-10 16:51:00,61.7,60.5,30.20,SE,144,4.0,12.0,96,0.01,,SKC,0.03,VWS V13.00,2013-01-10 22:51:00,
2013-01-10 16:56:00,61.6,60.5,30.19,SE,136,6.0,12.0,96,0.01,,SKC,0.03,VWS V13.00,2013-01-10 22:56:00,
2013-01-10 17:01:00,61.6,60.5,30.19,SE,137,2.0,12.0,96,0.01,,SKC,0.03,VWS V13.00,2013-01-10 23:01:00,
2013-01-10 17:06:00,61.6,60.5,30.19,ESE,107,2.0,9.0,96,0.01,,SKC,0.03,VWS V13.00,2013-01-10 23:06:00,
2013-01-10 17:11:00,61.6,60.5,30.18,SSE,161,6.0,11.0,96,0.01,,SKC,0.03,VWS V13.00,2013-01-10 23:11:00,
2013-01-10 17:16:00,61.7,60.5,30.18,SSE,148,5.0,11.0,96,0.01,,SKC,0.03,VWS V13.00,2013-01-10 23:16:00,
2013-01-10 17:21:00,61.7,60.5,30.18,ENE,72,4.0,13.0,96,0.01,,SKC,0.04,VWS V13.00,2013-01-10 23:21:00,
2013-01-10 17:26:00,61.7,60.5,30.17,SSE,157,5.0,13.0,96,0.02,,SKC,0.04,VWS V13.00,2013-01-10 23:26:00,
2013-01-10 17:31:00,61.7,60.5,30.17,ESE,105,10.0,13.0,96,0.02,,SKC,0.04,VWS V13.00,2013-01-10 23:31:00,
2013-01-10 17:36:00,61.8,60.7,30.17,SSE,155,12.0,15.0,96,0.01,,SKC,0.04,VWS V13.00,2013-01-10 23:36:00,
2013-01-10 17:41:00,61.9,60.5,30.18,ENE,73,5.0,15.0,95,0.01,,SKC,0.04,VWS V13.00,2013-01-10 23:41:00,
2013-01-10 17:46:00,61.9,60.5,30.18,SSE,150,5.0,15.0,95,0.01,,SKC,0.04,VWS V13.00,2013-01-10 23:46:00,
2013-01-10 17:51:00,62.0,60.6,30.18,ESE,117,5.0,15.0,95,0.01,,SKC,0.04,VWS V13.00,2013-01-10 23:51:00,
2013-01-10 17:56:00,62.1,60.7,30.18,SSE,155,6.0,15.0,95,0.01,,SKC,0.04,VWS V13.00,2013-01-10 23:56:00,
2013-01-10 18:01:00,62.2,60.8,30.18,SSE,154,4.0,15.0,95,0.01,,SKC,0.04,VWS V13.00,2013-01-11 00:01:00,
2013-01-10 18:06:00,62.2,60.8,30.18,SE,142,5.0,12.0,95,0.01,,SKC,0.04,VWS V13.00,2013-01-11 00:06:00,
2013-01-10 18:11:00,62.3,60.6,30.18,East,86,3.0,14.0,94,0.01,,SKC,0.04,VWS V13.00,2013-01-11 00:11:00,
2013-01-10 18:16:00,62.3,60.6,30.18,SSE,158,4.0,15.0,94,0.01,,SKC,0.04,VWS V13.00,2013-01-11 00:16:00,
2013-01-10 18:21:00,62.3,60.6,30.17,ESE,112,8.0,15.0,94,0.01,,SKC,0.04,VWS V13.00,2013-01-11 00:21:00,
2013-01-10 18:26:00,62.4,60.7,30.18,SSW,196,10.0,15.0,94,0.01,,SKC,0.04,VWS V13.00,2013-01-11 00:26:00,
2013-01-10 18:31:00,62.4,60.7,30.18,SSE,150,7.0,15.0,94,0.01,,SKC,0.04,VWS V13.00,2013-01-11 00:31:00,
2013-01-10 18:36:00,62.4,60.7,30.17,ESE,113,1.0,15.0,94,0.00,,SKC,0.04,VWS V13.00,2013-01-11 00:36:00,
2013-01-10 18:41:00,62.4,60.7,30.17,WSW,246,1.0,15.0,94,0.00,,SKC,0.04,VWS V13.00,2013-01-11 00:41:00,
2013-01-10 18:46:00,62.4,60.7,30.17,South,182,4.0,15.0,94,0.00,,SKC,0.04,VWS V13.00,2013-01-11 00:46:00,
2013-01-10 18:51:00,62.4,60.7,30.17,SSE,157,2.0,15.0,94,0.00,,SKC,0.04,VWS V13.00,2013-01-11 00:51:00,
2013-01-10 18:56:00,62.4,60.7,30.17,SSE,165,2.0,15.0,94,0.00,,SKC,0.04,VWS V13.00,2013-01-11 00:56:00,
2013-01-10 19:01:00,62.4,60.7,30.17,South,170,5.0,15.0,94,0.00,,SKC,0.04,VWS V13.00,2013-01-11 01:01:00,
2013-01-10 19:06:00,62.5,60.8,30.16,South,173,4.0,10.0,94,0.00,,SKC,0.04,VWS V13.00,2013-01-11 01:06:00,
2013-01-10 19:11:00,62.5,60.8,30.16,South,185,1.0,14.0,94,0.00,,SKC,0.04,VWS V13.00,2013-01-11 01:11:00,
2013-01-10 19:16:00,62.5,60.8,30.16,South,183,5.0,14.0,94,0.00,,SKC,0.04,VWS V13.00,2013-01-11 01:16:00,
2013-01-10 19:21:00,62.5,60.8,30.16,SSE,149,1.0,14.0,94,0.00,,SKC,0.04,VWS V13.00,2013-01-11 01:21:00,
2013-01-10 19:26:00,62.4,60.7,30.16,SSE,148,3.0,14.0,94,0.00,,SKC,0.04,VWS V13.00,2013-01-11 01:26:00,
2013-01-10 19:31:00,62.5,61.0,30.15,SE,142,7.0,14.0,95,0.00,,SKC,0.04,VWS V13.00,2013-01-11 01:31:00,
2013-01-10 19:36:00,62.6,60.8,30.15,South,169,8.0,10.0,94,0.00,,SKC,0.04,VWS V13.00,2013-01-11 01:36:00,
2013-01-10 19:41:00,62.7,61.0,30.15,SE,144,1.0,10.0,94,0.00,,SKC,0.04,VWS V13.00,2013-01-11 01:41:00,
2013-01-10 19:46:00,62.7,61.0,30.16,SSW,201,3.0,10.0,94,0.00,,SKC,0.04,VWS V13.00,2013-01-11 01:46:00,
2013-01-10 19:51:00,62.7,61.0,30.15,South,191,7.0,10.0,94,0.00,,SKC,0.04,VWS V13.00,2013-01-11 01:51:00,
2013-01-10 19:56:00,62.7,61.0,30.15,SSE,160,6.0,10.0,94,0.00,,SKC,0.04,VWS V13.00,2013-01-11 01:56:00,
2013-01-10 20:01:00,62.7,61.0,30.15,SE,126,11.0,13.0,94,0.00,,SKC,0.04,VWS V13.00,2013-01-11 02:01:00,
2013-01-10 20:06:00,62.8,61.0,30.15,South,173,7.0,10.0,94,0.00,,SKC,0.04,VWS V13.00,2013-01-11 02:06:00,
2013-01-10 20:11:00,62.9,61.2,30.15,SSE,161,8.0,13.0,94,0.00,,SKC,0.04,VWS V13.00,2013-01-11 02:11:00,
2013-01-10 20:16:00,63.0,61.2,30.14,SSE,163,7.0,14.0,94,0.00,,SKC,0.04,VWS V13.00,2013-01-11 02:16:00,
2013-01-10 20:21:00,63.2,61.5,30.14,SE,132,10.0,15.0,94,0.00,,SKC,0.04,VWS V13.00,2013-01-11 02:21:00,
2013-01-10 20:26:00,63.3,61.5,30.13,SSE,153,8.0,19.0,94,0.00,,SKC,0.04,VWS V13.00,2013-01-11 02:26:00,
2013-01-10 20:31:00,63.4,61.7,30.13,South,173,7.0,19.0,94,0.00,,SKC,0.04,VWS V13.00,2013-01-11 02:31:00,
2013-01-10 20:36:00,63.4,61.3,30.12,SSE,147,12.0,18.0,93,0.00,,SKC,0.04,VWS V13.00,2013-01-11 02:36:00,
2013-01-10 20:41:00,63.5,61.4,30.11,SSE,156,8.0,22.0,93,0.00,,SKC,0.04,VWS V13.00,2013-01-11 02:41:00,
2013-01-10 20:46:00,63.6,61.5,30.11,SE,144,5.0,22.0,93,0.00,,SKC,0.04,VWS V13.00,2013-01-11 02:46:00,
2013-01-10 20:51:00,63.6,61.5,30.10,SSE,147,15.0,22.0,93,0.00,,SKC,0.04,VWS V13.00,2013-01-11 02:51:00,
2013-01-10 20:56:00,63.6,61.5,30.09,SSE,147,10.0,22.0,93,0.00,,SKC,0.04,VWS V13.00,2013-01-11 02:56:00,
2013-01-10 21:01:00,63.7,61.3,30.08,SSE,157,18.0,22.0,92,0.00,,SKC,0.04,VWS V13.00,2013-01-11 03:01:00,
2013-01-10 21:06:00,63.8,61.4,30.07,SSE,160,11.0,20.0,92,0.00,,SKC,0.04,VWS V13.00,2013-01-11 03:06:00,
2013-01-10 21:11:00,63.8,61.4,30.06,SSE,157,5.0,22.0,92,0.00,,SKC,0.04,VWS V13.00,2013-01-11 03:11:00,
2013-01-10 21:16:00,63.8,61.4,30.05,SE,142,9.0,22.0,92,0.00,,SKC,0.04,VWS V13.00,2013-01-11 03:16:00,
2013-01-10 21:21:00,63.9,61.5,30.05,SE,138,6.0,23.0,92,0.00,,SKC,0.04,VWS V13.00,2013-01-11 03:21:00,
2013-01-10 21:26:00,64.1,61.7,30.03,South,188,10.0,27.0,92,0.00,,SKC,0.04,VWS V13.00,2013-01-11 03:26:00,
2013-01-10 21:31:00,64.1,61.4,30.03,ESE,107,8.0,27.0,91,0.00,,SKC,0.04,VWS V13.00,2013-01-11 03:31:00,
2013-01-10 21:37:00,64.1,61.4,30.03,SSE,159,14.0,23.0,91,0.00,,SKC,0.04,VWS V13.00,2013-01-11 03:37:00,
2013-01-10 21:42:00,64.3,61.6,30.03,SSE,156,13.0,29.0,91,0.00,,SKC,0.04,VWS V13.00,2013-01-11 03:42:00,
2013-01-10 21:47:00,64.3,61.6,30.03,ESE,110,19.0,29.0,91,0.00,,SKC,0.04,VWS V13.00,2013-01-11 03:47:00,
2013-01-10 21:52:00,64.4,61.7,30.03,SE,136,7.0,29.0,91,0.00,,SKC,0.04,VWS V13.00,2013-01-11 03:52:00,
2013-01-10 21:57:00,64.4,61.7,30.03,SSW,200,16.0,29.0,91,0.00,,SKC,0.04,VWS V13.00,2013-01-11 03:57:00,
2013-01-10 22:02:00,64.4,61.7,30.02,ESE,114,5.0,11.0,91,0.00,,SKC,0.04,VWS V13.00,2013-01-11 04:02:00,
2013-01-10 22:07:00,64.5,61.8,30.01,ESE,118,9.0,23.0,91,0.00,,SKC,0.04,VWS V13.00,2013-01-11 04:07:00,
2013-01-10 22:12:00,64.6,61.6,30.02,SE,141,5.0,27.0,90,0.00,,SKC,0.04,VWS V13.00,2013-01-11 04:12:00,
2013-01-10 22:17:00,64.7,61.7,30.02,SE,141,7.0,27.0,90,0.00,,SKC,0.04,VWS V13.00,2013-01-11 04:17:00,
2013-01-10 22:22:00,64.8,61.8,30.03,SE,142,19.0,27.0,90,0.00,,SKC,0.04,VWS V13.00,2013-01-11 04:22:00,
2013-01-10 22:27:00,64.8,61.8,30.02,SSW,197,4.0,27.0,90,0.00,,SKC,0.04,VWS V13.00,2013-01-11 04:27:00,
2013-01-10 22:32:00,64.9,61.9,30.03,SSE,157,28.0,28.0,90,0.00,,SKC,0.04,VWS V13.00,2013-01-11 04:32:00,
2013-01-10 22:37:00,65.0,62.0,30.04,South,169,9.0,28.0,90,0.00,,SKC,0.04,VWS V13.00,2013-01-11 04:37:00,
2013-01-10 22:42:00,65.1,61.8,30.04,SSW,213,6.0,28.0,89,0.00,,SKC,0.04,VWS V13.00,2013-01-11 04:42:00,
2013-01-10 22:48:00,65.0,62.0,30.04,ESE,123,6.0,28.0,90,0.00,,SKC,0.04,VWS V13.00,2013-01-11 04:48:00,
2013-01-10 22:53:00,64.8,61.8,30.03,South,171,12.0,28.0,90,0.00,,SKC,0.04,VWS V13.00,2013-01-11 04:53:00,
2013-01-10 22:58:00,64.8,61.8,30.03,SSE,167,9.0,28.0,90,0.00,,SKC,0.04,VWS V13.00,2013-01-11 04:58:00,
2013-01-10 23:00:00,64.9,61.9,30.04,South,189,6.0,28.0,90,0.00,,SKC,0.04,VWS V13.00,2013-01-11 05:00:00,
2013-01-10 23:01:00,64.9,61.9,30.04,SSE,165,7.0,28.0,90,0.00,,SKC,0.04,VWS V13.00,2013-01-11 05:01:00,
2013-01-10 23:03:00,64.9,61.9,30.05,SW,220,7.0,11.0,90,0.00,,SKC,0.04,VWS V13.00,2013-01-11 05:03:00,
2013-01-10 23:08:00,65.0,62.0,30.07,SW,221,8.0,19.0,90,0.00,,SKC,0.04,VWS V13.00,2013-01-11 05:08:00,
2013-01-10 23:13:00,65.0,62.0,30.07,SSW,198,7.0,19.0,90,0.00,,SKC,0.04,VWS V13.00,2013-01-11 05:13:00,
2013-01-10 23:18:00,65.0,61.7,30.06,South,169,9.0,19.0,89,0.00,,SKC,0.04,VWS V13.00,2013-01-11 05:18:00,
2013-01-10 23:23:00,65.0,61.7,30.05,SSE,166,6.0,19.0,89,0.00,,SKC,0.04,VWS V13.00,2013-01-11 05:23:00,
2013-01-10 23:28:00,65.2,61.6,30.05,SSE,155,9.0,19.0,88,0.00,,SKC,0.04,VWS V13.00,2013-01-11 05:28:00,
2013-01-10 23:33:00,65.3,61.7,30.04,SSE,153,11.0,14.0,88,0.00,,SKC,0.04,VWS V13.00,2013-01-11 05:33:00,
2013-01-10 23:38:00,65.3,61.3,30.04,SSE,147,13.0,20.0,87,0.00,,SKC,0.04,VWS V13.00,2013-01-11 05:38:00,
2013-01-10 23:43:00,65.4,61.4,30.04,SSW,198,9.0,23.0,87,0.00,,SKC,0.04,VWS V13.00,2013-01-11 05:43:00,
2013-01-10 23:48:00,65.4,61.4,30.06,South,180,9.0,23.0,87,0.00,,SKC,0.04,VWS V13.00,2013-01-11 05:48:00,
2013-01-10 23:53:00,65.5,61.5,30.06,SSE,162,9.0,23.0,87,0.00,,SKC,0.04,VWS V13.00,2013-01-11 05:53:00,
2013-01-10 23:58:00,65.4,61.4,30.05,SSE,163,14.0,23.0,87,0.00,,SKC,0.04,VWS V13.00,2013-01-11 05:58:00,